www.pogodaiklimat.ru
Время
(UTC), дата
00 28.03
03 28.03
06 28.03
09 28.03
12 28.03
15 28.03
18 28.03
21 28.03
00 29.03
03 29.03
06 29.03
09 29.03
12 29.03
15 29.03
18 29.03
21 29.03
00 30.03
03 30.03
06 30.03
09 30.03
12 30.03
15 30.03
18 30.03
21 30.03
00 31.03
03 31.03
06 31.03
09 31.03
12 31.03
15 31.03
18 31.03
21 31.03
00 1.04
03 1.04
06 1.04
09 1.04
12 1.04
15 1.04
18 1.04
21 1.04
00 2.04
03 2.04
06 2.04
09 2.04
12 2.04
15 2.04
18 2.04
21 2.04
00 3.04
03 3.04
06 3.04
09 3.04
12 3.04
15 3.04
18 3.04
21 3.04
Ветер
(напр.,м/с)
Видим. Явления Облачность Т
(С)
Тd
(С)
f
(%)
Тe
(С)
Тes
(С)
Комфортность P
(гПа)
Po
(гПа)
Тmin
(С)
Tmax
(С)
R
(мм)
R24
(мм)
S
(см)
штиль 0
{2}
9000 м дым ясно 0.0 -6.4 62 -1 -1 по сезону 1025.7 1005.9
штиль 0
{2}
10 км ясно -1.3 -5.7 72 -2 -2 по сезону 1024.1 1004.2
штиль 0
{2}
10 км ясно +1.6 -3.8 67 +1 +4 тепло 1022.8 1003.2 -2.1
СВ 2-4
{4}
18 км 4/0
[Ci]
+12.9 -7.3 24 +13 +20 тепло 1020.6 1001.8
В 1-3
{4}
20 км 3/0
[Ac trans]
+16.6 -7.9 18 +18 +25 тепло 1017.8 999.3
СЗ 2-3
{4}
19 км 3/0
[Cs]
+16.1 -7.6 19 +16 +18 тепло 1015.1 996.6
штиль 0-2
{3}
11 км 4/0
[As trans Cs]
+10.7 -7.7 27 +11 +11 тепло 1014.8 995.9 +17.7
С 1-2
{3}
10 км 10/0
[Ac und]
+7.6 -5.8 38 +8 +8 тепло 1013.7 994.7
штиль 0-1
{3}
7000 м дым 9/0
[Ac und]
+4.5 -4.8 51 +4 +4 тепло 1012.4 993.2
С 1-3
{4}
17 км 10/0
[Ac und]
+2.9 -4.1 60 +2 +2 тепло 1011.3 992.0
С 2-4
{5}
14 км 10/0
[Ac und]
+5.4 -2.4 57 +3 +4 тепло 1010.6 991.5 +2.5
С 4-8
{10}
18 км в посл. час дождь 9/0
[Ac und]
+6.7 -1.2 57 +4 +6 тепло 1011.3 992.2
С 5-9
{11}
20 км {дождь} 9/0
[Ac As]
+6.4 -0.9 60 +3 +4 по сезону 1012.1 993.0
С 5-10
{11}
19 км в посл. час морось 10/10 360 м
[St]
+1.4 -1.4 82 -4 -4 прохладно 1014.0 994.5
С 4-9
{12}
12 км слаб. дождь со снегом 10/0 400 м
[As op]
-0.5 -2.5 86 -6 -6 прохладно 1016.1 996.4 +7.9 0.0
С 4-9
{12}
19 км слаб. снег {дождь} 10/0
[As op]
-1.9 -5.1 79 -8 -8 прохладно 1017.3 997.5
С 5-10
{11}
20 км {снег, дождь} 10/10 1500 м
[Sc]
-1.9 -8.0 63 -8 -8 прохладно 1017.6 997.8
С 3-6
{10}
20 км 9/9 2000 м
[Sc]
-3.1 -10.2 58 -8 -8 прохладно 1017.9 998.0
С 3-7
{8}
20 км ясно -3.2 -11.1 54 -8 -6 холодно 1019.0 999.1 -4.4 0.5 <0.5
С 5-10
{10}
19 км 5/5 1500 м
[Cu med, cong]
+0.2 -11.8 40 -5 -3 холодно 1019.5 999.8
С 4-8
{11}
20 км 4/4 2000 м
[Cu hum]
+2.0 -13.1 32 -2 +1 холодно 1019.1 999.6
С 4-9
{10}
20 км ясно +2.5 -13.4 30 -1 -0 прохладно 1018.7 999.2
СЗ 1-2
{9}
20 км 3/0
[Ac trans]
-0.3 -12.8 38 -1 -1 по сезону 1020.3 1000.6 +3.1
СЗ 1-2
{3}
7000 м дым ясно -2.7 -11.7 50 -4 -4 прохладно 1021.5 1001.6
С 1-2
{4}
19 км ясно -4.1 -9.7 65 -6 -6 прохладно 1022.3 1002.3
ЮВ 1-2
{2}
11 км 6/6 2000 м
[Sc]
-6.7 -10.1 77 -9 -9 холодно 1023.7 1003.4
штиль 0
{3}
14 км 9/4 2000 м
[Sc Ac As]
-3.7 -6.8 79 -5 -4 по сезону 1024.5 1004.5 -7.0
Ю 2-4
{4}
19 км 8/6 2000 м
[Sc Ac trans]
+3.3 -11.9 32 +1 +4 по сезону 1024.1 1004.6
З 2-4
{7}
20 км 8/5 2000 м
[Cu med, cong Cs]
+4.0 -7.5 43 +2 +5 по сезону 1022.9 1003.4
З 3-5
{9}
20 км {снег, дождь} 6/4 1470 м
[Cu med, cong As trans]
+3.5 -6.8 47 0 +1 по сезону 1021.4 1001.9
З 2-3
{8}
19 км {снег, дождь} 6/0
[Ac trans Cs]
-0.2 -9.4 50 -3 -3 прохладно 1020.8 1001.1 +4.9 0.0
ЮЗ 3-4
{4}
20 км ясно -1.9 -8.9 59 -6 -6 прохладно 1019.8 1000.0
ЮЗ 2-4
{7}
20 км 10/0
[As trans]
-1.8 -6.2 72 -5 -5 прохладно 1018.4 998.6
ЮЗ 4-7
{8}
20 км 9/8 700 м
[Sc Ac trans]
-1.2 -5.4 73 -7 -7 прохладно 1015.5 995.8
ЮЗ 5-9
{10}
6000 м слаб. снег 10/0 600 м
[As op]
-1.3 -2.9 89 -8 -7 холодно 1013.8 994.1 -2.0 0.0
ЮЗ 5-10
{11}
20 км в посл. час дождь со снегом 10/10 700 м
[Sc]
+1.5 -3.7 68 -4 -4 холодно 1012.3 992.9
З 5-9
{11}
20 км в посл. час дождь 10/10 540 м
[St]
+1.9 -1.5 78 -4 -4 очень
холодно
1011.4 992.0
З 5-9
{13}
20 км 10/10 450 м
[St]
+2.8 -0.7 78 -2 -2 прохладно 1010.7 991.4
З 4-7
{11}
12 км в посл. час морось 10/10 270 м
[St]
+1.8 +0.5 91 -3 -3 прохладно 1010.6 991.2 +3.6 0.2
ЮЗ 4-6
{9}
20 км {морось} 10/10 1500 м
[Sc]
+2.1 -0.8 81 -3 -3 прохладно 1009.0 989.7
ЮЗ 4-7
{7}
20 км {морось} 9/9 1500 м
[Sc]
+2.7 -2.3 70 -2 -2 по сезону 1006.9 987.7
ЮЗ 5-9
{10}
16 км дождь {морось} 10/0 600 м
[As op]
+1.9 -0.2 86 -4 -4 по сезону 1005.4 986.1
З 4-10
{10}
20 км {снег, дождь} 10/10 480 м
[St]
+3.5 +1.0 84 -1 -1 по сезону 1005.3 986.1 +1.1 0.4
З 6-11
{13}
19 км слаб. морось 10/0 500 м
[As op]
+4.5 +1.0 78 -1 0 по сезону 1005.3 986.2
ЮЗ 5-9
{11}
20 км {дождь, морось} 10/10 480 м
[St]
+5.1 +1.8 79 +1 +1 прохладно 1005.8 986.7
ЮЗ 5-9
{12}
20 км 10/10 1500 м
[Sc]
+6.2 +0.9 69 +2 +2 по сезону 1005.3 986.3
ЮЗ 4-7
{11}
20 км 10/10 1500 м
[Sc]
+5.8 +0.3 68 +2 +2 по сезону 1004.7 985.7 +6.7 0.0
ЮЗ 5-9
{10}
20 км 10/10 1500 м
[Sc]
+5.6 -3.3 53 +2 +2 по сезону 1003.1 984.1
ЮЗ 6-10
{10}
20 км 10/10 1440 м
[Sc]
+5.0 -3.9 53 +1 +1 по сезону 1000.8 981.8
ЮЗ 6-9
{12}
20 км 9/9 1500 м
[Sc]
+4.1 -4.0 56 -1 -1 по сезону 998.7 979.7
ЮЗ 7-12
{12}
20 км в посл. час дождь 9/9 1000 м
[Sc]
+4.2 -2.4 62 -1 -1 по сезону 998.7 979.7 +3.0 0.0
З 7-12
{14}
20 км в посл. час дождь 9/9 1200 м
[Cu Sc]
+6.2 -2.3 54 +2 +2 по сезону 1000.4 981.5
З 9-16
{16}
20 км {дождь} 6/5 2000 м
[Cu med, cong Ac trans]
+8.5 -5.8 36 +4 +5 по сезону 1002.7 983.9
З 8-16
{16}
16 км слаб. дождь 10/0 900 м
[As op]
+6.1 -2.5 54 +1 +1 прохладно 1006.3 987.2
ЮЗ 5-11
{16}
16 км слаб. дождь 10/0
[As op]
+2.6 -0.1 82 -3 -3 холодно 1009.1 989.8 +9.9 0.0
ЮЗ 3-6
{11}
20 км {дождь} 3/3 1000 м
[Sc]
+0.8 -1.3 86 -4 -4 прохладно 1010.8 991.3
Местоположение метеостанции Вильнюс (Литва): широта 54.63 долгота 25.11 высота над уровнем моря 156 м.
В архиве по умолчанию представлена погода в Вильнюсе за последнюю неделю. Архивные данные за месяц целиком и за предыдущие месяцы, начиная с января 2011 года, Вы можете получить, выбрав интересующий диапазон дат из раскрывающегося списка и нажав кнопку "Найти!".
*Определитесь, кто Вы:
Внимание! Время в таблицах - всемирное. Для получения местного времени необходимо прибавить поправку, которая равна 2 ч.
Смотрите также архив погоды в соседних городах и на ближайших метеорологических станциях:
Партнеры нашего сайта:      
Пояснения к столбцам:
  • Ветер - указаны скорость ветра в м/с - средняя за 10 мин, порывы в срок и между сроками (в фигурных скобках) и направление, откуда дует ветер: С - северный,
  • СВ - северо-восточный, В - восточный, ЮВ - юго-восточный, Ю - южный, ЮЗ - юго-западный, З - западный, СЗ - северо-западный.
  • Видимость - горизонтальная дальность видимости в метрах или километрах. При видимости от 1 до 10 км при отсутствии осадков обычно наблюдается дымка, при ухудшении видимости до 1 км и менее - туман. В сухую погоду видимость может ухудшаться дымом, пылью или мглою.
  • Явления - указаны атмосферные явления, наблюдавшиеся в срок или в последний час перед сроком; фигурными скобками обозначены явления, наблюдавшиеся между сроками (за 1-3 часа до срока); квадратными скобками обозначены град или гололедные отложения с указанием их диаметра в мм.
  • Облачность - указаны через наклонную черту общая и нижняя облачность в баллах и высота нижней границы облаков в метрах; квадратными скобками обозначены формы облаков: Ci - перистые, Cs - перисто-слоистые, Cc - перисто-кучевые, Ac - высококучевые, As - высокослоистые, Sc - слоисто-кучевые, Ns - слоисто-дождевые, Cu - кучевые, Cb - кучево-дождевые. Подробнее классификацию облаков см. в Атласе облаков (PDF).
  • T - Температура воздуха - температура, измеренная на высоте 2 м над землей.
  • Td - Температура точки росы - температура, при понижении до которой содержащийся в воздухе водяной пар достигнет насыщения.
  • f - Относительная влажность воздуха - влажноcть воздуха, измеренная на высоте 2 м над землей.
  • Te - Эффективная температура - температура, которую ощущает одетый по сезону человек в тени. Характеристика душности погоды. При расчете учитывается влияние влажности воздуха и скорости ветра на теплоощущения человека.
  • Tes - Эффективная температура на солнце - температура, которую ощущает человек, с поправкой на солнечный нагрев. Характеристика знойности погоды. Зависит от высоты солнца над горизонтом, облачности и скорости ветра. Ночью, в пасмурную погоду, а также при ветре 12 м/с и более поправка равна нулю.
  • P - Атмосферное давление - приведенное к уровню моря атмосферное давление.
  • Po - Атмосферное давление - измеренное на уровне метеостанции атмосферное давление.
  • Tmin - Минимальная температура - минимум температуры воздуха на высоте 2 м над землей.
  • Tmax - Максимальная температура - максимум температуры воздуха на высоте 2 м над землей.
  • R - Количество осадков - Количество выпавших осадков за период времени, мм. При наведении курсора мыши на число - период времени, за который выпало указанное количество осадков.
  • R24 - Количество осадков - Количество выпавших осадков за 24 часа, мм.
  • S - Снежный покров - Высота снежного покрова, см. При наведении курсора мыши на число - состояние снежного покрова и степень покрытия местности в баллах.